Regional Weather Roundup
Issued by NWS

Home | Current Version | Previous Version | Text Only | Print | Product List | Glossary On
Versions: 1 2 3 4 5 6 7 8 9 10 11 12 13 14 15 16 17 18 19 20 21 22 23 24 25 26 27 28 29 30 31 32 33 34 35 36 37 38 39 40 41 42 43 44 45 46 47 48 49 50
000
ASUS43 KLMK 071910
RWRKY
KENTUCKY REGIONAL WEATHER ROUNDUP
NATIONAL WEATHER SERVICE LOUISVILLE KY
200 PM EST SUN FEB 07 2016

NOTE "FAIR" INDICATES FEW OR NO CLOUDS BELOW 12,000 FEET
WITH NO SIGNIFICANT WEATHER AND/OR OBSTRUCTIONS TO VISIBILITY.

KYZ001>023-026-027-061>063-070>075-072000-
WESTERN AND SOUTH CENTRAL KENTUCKY

CITY           SKY/WX    TMP DP  RH WIND       PRES   REMARKS
PADUCAH        MOSUNNY   56  24  29 SW21G33   29.99F
HENDERSON      SUNNY     55  28  35 SW21G29   29.98F
OWENSBORO      CLOUDY    55  32  41 SW21      29.99F
HOPKINSVILLE   SUNNY     55  21  27 SW18G24   30.03F
BOWLING GREEN  SUNNY     54  21  27 SW14      30.05F
GLASGOW        SUNNY     53  21  28 SW9       30.05F
$$

KYZ024-025-028>034-038-045-046-053-072000-
NORTH CENTRAL KENTUCKY

CITY           SKY/WX    TMP DP  RH WIND       PRES   REMARKS
LOUISVILLE/SDF PTSUNNY   55  19  24 SW16G25   29.99F
LOUISVILLE/LOU SUNNY     54  21  27 SW13G21   30.00F
FORT KNOX      SUNNY     54  22  28 SW18G24   29.98F
$$

KYZ035>037-039>044-047>052-055>060-089>105-072000-
NORTHEAST KENTUCKY

CITY           SKY/WX    TMP DP  RH WIND       PRES   REMARKS
LEXINGTON      MOSUNNY   52  21  29 SW15      30.01F
COVINGTON      MOSUNNY   52  20  28 SW17G29   29.96F
FRANKFORT      SUNNY     52  20  28 S14       29.99F
$$

KYZ054-064>069-076>088-106>120-072000-
SOUTHEAST KENTUCKY

CITY           SKY/WX    TMP DP  RH WIND       PRES   REMARKS
JACKSON        SUNNY     52  22  30 CALM      30.02F
LONDON         SUNNY     51  21  30 W8        30.04F
SOMERSET       MOSUNNY   50  23  34 SW10      30.06F
MIDDLESBORO    SUNNY     51  22  32 SE5       30.05F
MONTICELLO     CLOUDY    52  24  33 W16G23    30.07F
$$




USA.gov is the U.S. government's official web portal to all federal, state and local government web resources and services.